Location: Ottawa
(45.4167°N, 75.7000°W)
Time: 12:17:06
(UTC-04:00)

Vanguard 2 - Visible Passes

Search period start: 20 April 2018 00:00
Search period end: 30 April 2018 00:00
Orbit: 553 x 2939 km, 32.9° (Epoch: 20 April)

Date Brightness Start Highest point End Pass type
(mag) Time Alt. Az. Time Alt. Az. Time Alt. Az.
21 Apr 10.5 22:21:54 10° SSW 22:23:33 13° S 22:23:33 13° S visible
22 Apr 10.3 22:38:30 10° SSW 22:41:34 16° SSW 22:41:34 16° SSW visible
23 Apr 10.2 20:48:40 10° S 20:54:10 14° SSE 20:58:01 11° SE visible
23 Apr 10.1 22:55:36 10° SW 22:59:31 19° SSW 22:59:31 19° SSW visible
24 Apr 10.0 21:04:25 10° SSW 21:12:08 19° SSE 21:15:53 15° SE visible
24 Apr 10.0 23:13:03 10° SW 23:17:22 21° SSW 23:17:22 21° SSW visible
25 Apr 9.8 21:20:58 10° SSW 21:30:04 24° SSE 21:33:40 19° SE visible
25 Apr 10.0 23:30:42 10° WSW 23:35:09 22° SW 23:35:09 22° SW visible
26 Apr 9.6 21:38:00 10° SW 21:48:02 29° SSE 21:51:20 23° SE visible
26 Apr 10.0 23:48:31 10° WSW 23:52:48 22° SW 23:52:48 22° SW visible
27 Apr 9.4 21:55:21 10° SW 22:05:57 33° S 22:08:54 27° SE visible
28 Apr 10.1 00:06:29 10° WSW 00:10:21 21° SW 00:10:21 21° SW visible
28 Apr 9.3 22:12:57 10° WSW 22:23:53 36° S 22:26:21 31° SSE visible
29 Apr 10.2 00:24:33 10° WSW 00:27:48 19° WSW 00:27:48 19° WSW visible
29 Apr 10.3 20:20:01 10° SW 20:32:22 32° SSE 20:40:57 10° ESE visible
29 Apr 9.2 22:30:44 10° WSW 22:41:46 38° S 22:43:42 35° SSE visible
